Location: Hamilton
(37.7830°S, 175.2830°E)
Time: 12:54:52
(UTC+13:00)

ISS - Visible Passes

Search period start: 01 December 2023 00:00
Search period end: 11 December 2023 00:00
Orbit: 416 x 417 km, 51.6° (Epoch: 30 November)

Date Brightness Start Highest point End Pass type
(mag) Time Alt. Az. Time Alt. Az. Time Alt. Az.
01 Dec -1.9 03:03:16 28° SSW 03:03:16 28° SSW 03:05:51 10° SSE visible
02 Dec -1.0 02:16:23 20° SSE 02:16:23 20° SSE 02:17:38 10° SE visible
02 Dec -0.8 03:50:16 10° SW 03:51:43 12° SSW 03:53:10 10° S visible
03 Dec -1.1 03:02:17 15° SW 03:03:01 16° SSW 03:05:11 10° SSE visible
04 Dec -1.0 02:15:12 19° S 02:15:12 19° S 02:17:02 10° SSE visible
05 Dec -0.6 01:28:01 15° SSE 01:28:01 15° SSE 01:28:44 10° SSE visible
05 Dec -0.4 03:02:55 10° SSW 03:03:14 10° SSW 03:03:33 10° S visible
06 Dec -0.6 02:13:30 12° SSW 02:14:20 12° SSW 02:15:54 10° S visible
07 Dec -0.7 01:25:58 16° SSW 01:25:58 16° SSW 01:27:42 10° SSE visible
07 Dec -0.5 04:39:53 10° S 04:41:25 12° SSE 04:42:56 10° SE visible
08 Dec -0.8 00:38:07 17° S 00:38:07 17° S 00:39:21 10° SSE visible
08 Dec -1.2 23:49:37 19° SSE 23:49:37 19° SSE 23:50:51 10° SE visible
09 Dec -0.2 01:24:35 10° SSW 01:25:14 10° SSW 01:25:54 10° S visible
09 Dec -0.8 04:38:26 10° SSW 04:41:07 21° SSE 04:43:47 10° ESE visible
09 Dec -1.9 21:20:49 10° NNE 21:22:29 13° NE 21:24:10 10° E visible
09 Dec -3.2 22:55:29 10° WNW 22:58:50 58° SW 23:02:12 10° SE visible
10 Dec -0.4 00:34:27 10° SW 00:36:09 13° SSW 00:37:51 10° S visible
10 Dec -0.5 03:49:59 10° SSW 03:52:06 15° SSE 03:54:13 10° ESE visible
10 Dec -3.9 22:06:38 10° NW 22:10:00 76° NE 22:13:25 10° SE visible
10 Dec -0.7 23:44:43 10° WSW 23:47:04 17° SSW 23:49:26 10° SSE visible
